Location: Asheville, NC
(35.6000°N, 82.5500°W)
Time: 10:21:39

AO-73 - Pass Details

Date: 17 March 2018
Orbit: 582 x 666 km, 97.6° (Epoch: 18 March)

Event Time Altitude Azimuth Distance (km) Brightness Sun altitude
Rises 20:14:37 0° 147° (SSE) 2,861 ? -8.0°
Reaches altitude 10° 20:16:56 10° 138° (SE) 1,948 ? -8.4°
Maximum altitude 20:20:46 35° 73° (ENE) 975 ? -9.2°
Drops below altitude 10° 20:24:33 10° 8° (N) 1,923 ? -10.0°
Sets 20:26:50 0° 359° (N) 2,820 ? -10.4°
